Regional Weather Roundup
Issued by NWS

Home | Current Version | Previous Version | Text Only | Print | Product List | Glossary Off
Versions: 1 2 3 4 5 6 7 8 9 10 11 12 13 14 15 16 17 18 19 20 21 22 23 24 25 26 27 28 29 30 31 32 33 34 35 36 37 38 39 40 41 42 43 44 45 46 47 48 49 50

000
ASUS43 KLMK 240102
RWRKY
KENTUCKY REGIONAL WEATHER ROUNDUP
NATIONAL WEATHER SERVICE LOUISVILLE KY
800 PM EST SUN NOV 23 2014

NOTE "FAIR" INDICATES FEW OR NO CLOUDS BELOW 12,000 FEET
WITH NO SIGNIFICANT WEATHER AND/OR OBSTRUCTIONS TO VISIBILITY.

KYZ001>023-026-027-061>063-070>075-240200-
WESTERN AND SOUTH CENTRAL KENTUCKY

CITY           SKY/WX    TMP DP  RH WIND       PRES   REMARKS
PADUCAH        LGT RAIN  57  55  93 SW8       29.31R FOG
HENDERSON      CLOUDY    57  54  88 S18G25    29.27F
OWENSBORO      LGT RAIN  59  57  92 S17G25    29.29F
HOPKINSVILLE   DRIZZLE   58  58 100 S13       29.33S
BOWLING GREEN  CLOUDY    61  55  81 S17G25    29.37F
GLASGOW        NOT AVBL
$$

KYZ024-025-028>034-038-045-046-053-240200-
NORTH CENTRAL KENTUCKY

CITY           SKY/WX    TMP DP  RH WIND       PRES   REMARKS
LOUISVILLE/SDF LGT RAIN  57  54  89 SE20G26   29.36F
LOUISVILLE/LOU CLOUDY    56  54  93 SE7       29.37F
FORT KNOX      CLOUDY    56  54  93 SE17G24   29.35F
$$

KYZ035>037-039>044-047>052-055>060-089>105-240200-
NORTHEAST KENTUCKY

CITY           SKY/WX    TMP DP  RH WIND       PRES   REMARKS
LEXINGTON      LGT RAIN  55  53  93 SE14G24   29.42F
COVINGTON      NOT AVBL
FRANKFORT      LGT RAIN  56  53  90 SE13      29.40F
$$

KYZ054-064>069-076>088-106>120-240200-
SOUTHEAST KENTUCKY

CITY           SKY/WX    TMP DP  RH WIND       PRES   REMARKS
JACKSON        CLOUDY    58  52  80 SE10G20   29.51F
LONDON         LGT RAIN  58  52  80 SE14G24   29.48F
SOMERSET       NOT AVBL
MIDDLESBORO    CLOUDY    56  53  89 S6        29.56F
MONTICELLO     CLOUDY    62  56  81 S21G29    29.48S
$$




USA.gov is the U.S. government's official web portal to all federal, state and local government web resources and services.